START_TIME,STEP,MOV.,AL01,t_acc.,AL02,t_acc.,E37,t_acc.,H21,t_acc.
1979-03-02 15:00:23.770 ,2,1,1.,24.0,0.,24.0,0.,24.0,0.,24.0
1979-03-02 15:00:47.770 ,1,1,0.,24.0,0.,24.0,0.,24.0,0.,24.0
1979-03-02 15:01:11.770 ,0,1,0.,24.0,0.,24.0,0.,24.0,0.,24.0
1979-03-02 15:01:35.770 ,0,1,1.,24.0,0.,24.0,0.,24.0,0.,24.0
1979-03-02 15:01:59.770 ,1,1,0.,24.0,0.,24.0,0.,24.0,0.,24.0
1979-03-02 15:02:23.770 ,2,1,0.,24.0,0.,24.0,0.,24.0,0.,24.0
1979-03-02 15:02:47.770 ,3,1,0.,24.0,0.,24.0,0.,24.0,0.,24.0
1979-03-02 15:03:11.770 ,4,1,1.,24.0,1.,24.0,0.,24.0,0.,24.0
1979-03-02 15:03:35.770 ,5,1,1.,24.0,0.,24.0,1.,24.0,0.,24.0
1979-03-02 15:03:59.770 ,6,1,0.,24.0,0.,24.0,0.,24.0,0.,24.0
1979-03-02 15:04:23.770 ,7,1,6.,24.0,0.,24.0,1.,24.0,0.,24.0
1979-03-02 15:04:47.770 ,7,1,17.,24.0,0.,24.0,0.,24.0,0.,24.0
1979-03-02 15:05:11.770 ,6,1,2.,24.0,0.,24.0,1.,24.0,0.,24.0
1979-03-02 15:05:35.770 ,5,1,0.,24.0,0.,24.0,0.,24.0,0.,24.0
1979-03-02 15:05:59.770 ,4,1,0.,24.0,0.,24.0,0.,24.0,0.,24.0
1979-03-02 15:06:23.770 ,3,1,0.,24.0,0.,24.0,0.,24.0,0.,24.0
1979-03-02 15:06:47.770 ,2,1,0.,24.0,0.,24.0,1.,24.0,0.,24.0
1979-03-02 15:07:11.770 ,1,1,0.,24.0,0.,24.0,0.,24.0,0.,24.0
1979-03-02 15:07:35.770 ,0,1,0.,24.0,0.,24.0,1.,24.0,0.,24.0
1979-03-02 15:07:59.770 ,0,1,0.,24.0,0.,24.0,0.,24.0,0.,24.0
1979-03-02 15:08:23.770 ,1,1,0.,24.0,0.,24.0,1.,24.0,0.,24.0
1979-03-02 15:08:47.770 ,2,1,1.,24.0,0.,24.0,0.,24.0,0.,24.0
1979-03-02 15:09:11.770 ,3,1,0.,24.0,1.,24.0,1.,24.0,0.,24.0
1979-03-02 15:09:35.770 ,4,1,0.,24.0,0.,24.0,2.,24.0,0.,24.0
1979-03-02 15:09:59.770 ,5,1,1.,24.0,0.,24.0,0.,24.0,0.,24.0
1979-03-02 15:10:23.770 ,6,1,1.,24.0,0.,24.0,0.,24.0,0.,24.0
1979-03-02 15:10:47.770 ,7,1,2.,24.0,0.,24.0,0.,24.0,0.,24.0
1979-03-02 15:11:11.770 ,7,1,5.,24.0,0.,24.0,0.,24.0,0.,24.0
1979-03-02 15:11:35.770 ,6,1,4.,24.0,0.,24.0,0.,24.0,0.,24.0
1979-03-02 15:11:59.770 ,5,1,0.,24.0,0.,24.0,1.,24.0,0.,24.0
1979-03-02 15:12:23.770 ,4,1,0.,24.0,0.,24.0,1.,24.0,0.,24.0
1979-03-02 15:12:47.770 ,3,1,1.,24.0,0.,24.0,0.,24.0,0.,24.0
1979-03-02 15:13:11.770 ,0,0,,0,,0,,0,,0
1979-03-02 15:13:16.570 ,2,1,0.,24.0,0.,24.0,0.,24.0,0.,24.0
1979-03-02 15:13:35.770 ,1,1,0.,24.0,0.,24.0,1.,24.0,0.,24.0
1979-03-02 15:13:59.770 ,0,1,0.,24.0,0.,24.0,1.,24.0,0.,24.0
1979-03-02 15:14:23.770 ,0,1,0.,24.0,1.,24.0,0.,24.0,0.,24.0
1979-03-02 15:14:47.770 ,1,1,1.,24.0,0.,24.0,0.,24.0,0.,24.0
1979-03-02 15:15:11.770 ,2,1,0.,24.0,0.,24.0,0.,24.0,0.,24.0
1979-03-02 15:15:35.770 ,3,1,1.,24.0,1.,24.0,0.,24.0,0.,24.0
1979-03-02 15:15:59.770 ,4,1,0.,24.0,0.,24.0,0.,24.0,0.,24.0
1979-03-02 15:16:23.770 ,5,1,1.,24.0,0.,24.0,0.,24.0,0.,24.0
1979-03-02 15:16:47.770 ,6,1,0.,24.0,0.,24.0,0.,24.0,0.,24.0
1979-03-02 15:17:11.770 ,7,1,2.,24.0,0.,24.0,2.,24.0,0.,24.0
1979-03-02 15:17:35.770 ,7,1,12.,24.0,0.,24.0,0.,24.0,0.,24.0
1979-03-02 15:17:59.770 ,6,1,4.,24.0,0.,24.0,0.,24.0,0.,24.0
1979-03-02 15:18:23.770 ,5,1,0.,24.0,0.,24.0,0.,24.0,0.,24.0
1979-03-02 15:18:47.770 ,4,1,1.,24.0,0.,24.0,1.,24.0,0.,24.0
1979-03-02 15:19:11.770 ,3,1,0.,24.0,0.,24.0,0.,24.0,0.,24.0
1979-03-02 15:19:35.770 ,0,0,1.,24.0,0.,24.0,0.,24.0,0.,24.0
1979-03-02 15:19:59.770 ,0,0,0.,24.0,0.,24.0,0.,24.0,0.,24.0
1979-03-02 15:20:23.770 ,0,1,1.,24.0,1.,24.0,0.,24.0,0.,24.0
1979-03-02 15:20:47.770 ,0,1,0.,24.0,0.,24.0,1.,24.0,0.,24.0
1979-03-02 15:21:11.770 ,1,1,0.,24.0,0.,24.0,0.,24.0,0.,24.0
1979-03-02 15:21:35.770 ,2,1,2.,24.0,0.,24.0,0.,24.0,0.,24.0
1979-03-02 15:21:59.770 ,3,1,0.,24.0,0.,24.0,0.,24.0,0.,24.0
1979-03-02 15:22:23.770 ,4,1,0.,24.0,0.,24.0,0.,24.0,0.,24.0
1979-03-02 15:22:47.770 ,5,1,0.,24.0,0.,24.0,0.,24.0,0.,24.0
1979-03-02 15:23:11.770 ,6,1,1.,24.0,0.,24.0,0.,24.0,0.,24.0
1979-03-02 15:23:35.770 ,7,1,2.,24.0,0.,24.0,0.,24.0,0.,24.0
1979-03-02 15:23:59.770 ,7,1,13.,24.0,0.,24.0,0.,24.0,0.,24.0
1979-03-02 15:24:23.770 ,6,1,9.,24.0,0.,24.0,0.,24.0,0.,24.0
1979-03-02 15:24:47.770 ,5,1,0.,24.0,0.,24.0,0.,24.0,0.,24.0
1979-03-02 15:25:11.770 ,4,1,0.,24.0,0.,24.0,0.,24.0,0.,24.0
1979-03-02 15:25:35.770 ,3,1,0.,24.0,0.,24.0,0.,24.0,0.,24.0
1979-03-02 15:25:59.770 ,2,1,0.,24.0,0.,24.0,0.,24.0,0.,24.0
1979-03-02 15:26:23.770 ,1,1,0.,24.0,0.,24.0,0.,24.0,0.,24.0
1979-03-02 15:26:47.770 ,0,1,0.,24.0,0.,24.0,0.,24.0,0.,24.0
1979-03-02 15:27:11.770 ,0,1,0.,24.0,0.,24.0,0.,24.0,0.,24.0
1979-03-02 15:27:35.770 ,1,1,0.,24.0,0.,24.0,1.,24.0,0.,24.0
1979-03-02 15:27:59.770 ,2,1,0.,24.0,0.,24.0,0.,24.0,0.,24.0
1979-03-02 15:28:23.770 ,3,1,0.,24.0,0.,24.0,0.,24.0,0.,24.0
1979-03-02 15:28:47.770 ,4,1,0.,24.0,0.,24.0,0.,24.0,0.,24.0
1979-03-02 15:29:11.770 ,5,1,2.,24.0,1.,24.0,0.,24.0,0.,24.0
1979-03-02 15:29:35.770 ,6,1,0.,24.0,1.,24.0,0.,24.0,0.,24.0
1979-03-02 15:29:59.770 ,7,1,1.,24.0,0.,24.0,0.,24.0,0.,24.0
1979-03-02 15:30:23.770 ,7,1,12.,24.0,0.,24.0,1.,24.0,0.,24.0
1979-03-02 15:30:47.770 ,6,1,6.,24.0,0.,24.0,0.,24.0,0.,24.0
1979-03-02 15:31:35.770 ,0,0,0.,24.0,1.,24.0,0.,24.0,0.,24.0
1979-03-02 15:31:59.770 ,3,1,,0,,0,,0,,0
1979-03-02 15:32:23.770 ,2,1,0.,24.0,0.,24.0,0.,24.0,0.,24.0
1979-03-02 15:32:47.770 ,1,1,0.,24.0,0.,24.0,0.,24.0,0.,24.0
1979-03-02 15:33:11.770 ,0,0,,0,,0,,0,,0
1979-03-02 15:33:35.770 ,0,0,1.,24.0,0.,24.0,1.,24.0,0.,24.0
1979-03-02 15:33:59.770 ,1,1,0.,24.0,0.,24.0,2.,24.0,0.,24.0
1979-03-02 15:34:23.770 ,2,1,0.,24.0,0.,24.0,1.,24.0,0.,24.0
1979-03-02 15:34:47.770 ,3,1,0.,24.0,0.,24.0,0.,24.0,0.,24.0
1979-03-02 15:35:11.770 ,4,1,0.,24.0,0.,24.0,0.,24.0,0.,24.0
1979-03-02 15:35:35.770 ,5,1,0.,24.0,0.,24.0,0.,24.0,0.,24.0
1979-03-02 15:35:59.770 ,6,1,0.,24.0,0.,24.0,1.,24.0,0.,24.0
1979-03-02 15:36:23.770 ,7,1,2.,24.0,0.,24.0,1.,24.0,0.,24.0
1979-03-02 15:36:47.770 ,7,1,19.,24.0,0.,24.0,1.,24.0,0.,24.0
1979-03-02 15:37:11.770 ,6,1,9.,24.0,0.,24.0,0.,24.0,0.,24.0
1979-03-02 15:37:35.770 ,5,1,0.,24.0,0.,24.0,0.,24.0,0.,24.0
1979-03-02 15:37:59.770 ,4,1,1.,24.0,0.,24.0,0.,24.0,0.,24.0
1979-03-02 15:38:23.770 ,3,1,1.,24.0,1.,24.0,0.,24.0,0.,24.0
1979-03-02 15:38:47.770 ,2,1,0.,24.0,0.,24.0,0.,24.0,0.,24.0
1979-03-02 15:39:11.770 ,1,1,0.,24.0,0.,24.0,1.,24.0,0.,24.0
1979-03-02 15:39:35.770 ,0,1,0.,24.0,0.,24.0,0.,24.0,0.,24.0
1979-03-02 15:39:59.770 ,0,1,0.,24.0,0.,24.0,0.,24.0,0.,24.0
1979-03-02 15:40:23.770 ,1,1,0.,24.0,0.,24.0,2.,24.0,0.,24.0
1979-03-02 15:40:47.770 ,2,1,2.,24.0,0.,24.0,0.,24.0,0.,24.0
1979-03-02 15:41:11.770 ,3,1,0.,24.0,0.,24.0,0.,24.0,0.,24.0
1979-03-02 15:41:35.770 ,4,1,0.,24.0,0.,24.0,0.,24.0,0.,24.0
1979-03-02 15:41:59.770 ,5,1,1.,24.0,0.,24.0,0.,24.0,0.,24.0
1979-03-02 15:42:23.770 ,6,1,0.,24.0,0.,24.0,0.,24.0,0.,24.0
1979-03-02 15:42:47.770 ,7,1,1.,24.0,0.,24.0,0.,24.0,0.,24.0
1979-03-02 15:43:11.770 ,7,1,8.,24.0,0.,24.0,0.,24.0,0.,24.0
1979-03-02 15:43:35.770 ,6,1,6.,24.0,0.,24.0,0.,24.0,0.,24.0
1979-03-02 15:43:59.770 ,5,1,1.,24.0,0.,24.0,0.,24.0,0.,24.0
1979-03-02 15:44:23.770 ,4,1,0.,24.0,0.,24.0,1.,24.0,0.,24.0
1979-03-02 15:44:47.770 ,3,1,1.,24.0,0.,24.0,0.,24.0,0.,24.0
1979-03-02 15:45:11.770 ,2,1,1.,24.0,0.,24.0,0.,24.0,0.,24.0
1979-03-02 15:45:35.770 ,1,1,0.,24.0,0.,24.0,0.,24.0,0.,24.0
1979-03-02 15:45:59.770 ,0,1,,0,,0,,0,,0
1979-03-02 15:46:23.770 ,0,1,0.,24.0,0.,24.0,0.,24.0,0.,24.0
1979-03-02 15:46:47.770 ,1,1,2.,24.0,0.,24.0,1.,24.0,0.,24.0
1979-03-02 15:47:11.770 ,2,1,0.,24.0,0.,24.0,0.,24.0,0.,24.0
1979-03-02 15:47:35.770 ,3,1,0.,24.0,0.,24.0,0.,24.0,0.,24.0
1979-03-02 15:47:59.770 ,4,1,1.,24.0,0.,24.0,0.,24.0,0.,24.0
1979-03-02 15:48:23.770 ,5,1,1.,24.0,0.,24.0,0.,24.0,0.,24.0
1979-03-02 15:48:47.770 ,6,1,1.,24.0,0.,24.0,0.,24.0,0.,24.0
1979-03-02 15:49:11.770 ,7,1,5.,24.0,0.,24.0,0.,24.0,0.,24.0
1979-03-02 15:49:35.770 ,7,1,10.,24.0,0.,24.0,0.,24.0,0.,24.0
1979-03-02 15:49:59.770 ,6,1,9.,24.0,0.,24.0,0.,24.0,0.,24.0
1979-03-02 15:50:23.770 ,5,1,0.,24.0,0.,24.0,0.,24.0,0.,24.0
1979-03-02 15:50:47.770 ,4,1,0.,24.0,0.,24.0,0.,24.0,0.,24.0
1979-03-02 15:51:11.770 ,3,1,0.,24.0,0.,24.0,0.,24.0,0.,24.0
1979-03-02 15:51:35.770 ,2,1,1.,24.0,0.,24.0,0.,24.0,0.,24.0
1979-03-02 15:51:59.770 ,1,1,3.,24.0,0.,24.0,0.,24.0,0.,24.0
1979-03-02 15:52:23.770 ,0,1,0.,24.0,0.,24.0,1.,24.0,0.,24.0
1979-03-02 15:52:47.770 ,0,1,1.,24.0,0.,24.0,0.,24.0,0.,24.0
1979-03-02 15:53:11.770 ,1,1,1.,24.0,0.,24.0,0.,24.0,0.,24.0
1979-03-02 15:53:35.770 ,2,1,0.,24.0,0.,24.0,0.,24.0,0.,24.0
1979-03-02 15:53:59.770 ,3,1,1.,24.0,0.,24.0,0.,24.0,0.,24.0
1979-03-02 15:54:23.770 ,4,1,0.,24.0,1.,24.0,0.,24.0,0.,24.0
1979-03-02 15:54:47.770 ,5,1,0.,24.0,0.,24.0,0.,24.0,0.,24.0
1979-03-02 15:55:11.770 ,6,1,0.,24.0,0.,24.0,0.,24.0,0.,24.0
1979-03-02 15:55:35.770 ,0,0,3.,24.0,0.,24.0,0.,24.0,0.,24.0
1979-03-02 15:56:00.370 ,7,1,10.,24.0,0.,24.0,0.,24.0,0.,24.0
1979-03-02 15:56:23.770 ,6,1,9.,24.0,0.,24.0,0.,24.0,0.,24.0
1979-03-02 15:56:47.770 ,5,1,0.,24.0,0.,24.0,0.,24.0,0.,24.0
1979-03-02 15:57:11.770 ,4,1,0.,24.0,0.,24.0,0.,24.0,0.,24.0
1979-03-02 15:57:35.770 ,3,1,0.,24.0,0.,24.0,0.,24.0,0.,24.0
1979-03-02 15:57:59.770 ,2,1,,0,,0,,0,,0
1979-03-02 15:58:23.770 ,1,1,0.,24.0,0.,24.0,0.,24.0,0.,24.0
1979-03-02 15:58:47.770 ,0,1,0.,24.0,0.,24.0,0.,24.0,0.,24.0
1979-03-02 15:59:11.770 ,0,1,1.,24.0,0.,24.0,0.,24.0,0.,24.0
1979-03-02 15:59:35.770 ,1,1,1.,24.0,0.,24.0,1.,24.0,0.,24.0
1979-03-02 15:59:59.770 ,2,1,0.,24.0,1.,24.0,1.,24.0,0.,24.0
1979-03-02 16:00:23.770 ,3,1,0.,24.0,1.,24.0,0.,24.0,0.,24.0
1979-03-02 16:00:47.770 ,4,1,0.,24.0,0.,24.0,1.,24.0,0.,24.0
1979-03-02 16:01:11.770 ,5,1,0.,24.0,0.,24.0,0.,24.0,0.,24.0
1979-03-02 16:01:35.770 ,6,1,0.,24.0,0.,24.0,0.,24.0,0.,24.0
1979-03-02 16:01:59.770 ,7,1,2.,24.0,0.,24.0,0.,24.0,0.,24.0
1979-03-02 16:02:23.770 ,7,1,8.,24.0,0.,24.0,0.,24.0,0.,24.0
1979-03-02 16:02:47.770 ,6,1,7.,24.0,0.,24.0,0.,24.0,0.,24.0
1979-03-02 16:03:11.770 ,5,1,0.,24.0,0.,24.0,2.,24.0,0.,24.0
1979-03-02 16:03:35.770 ,4,1,0.,24.0,0.,24.0,0.,24.0,0.,24.0
1979-03-02 16:03:59.770 ,3,1,1.,24.0,0.,24.0,0.,24.0,0.,24.0
1979-03-02 16:04:23.770 ,2,1,0.,24.0,0.,24.0,1.,24.0,0.,24.0
1979-03-02 16:04:47.770 ,1,1,0.,24.0,0.,24.0,0.,24.0,0.,24.0
1979-03-02 16:05:11.770 ,0,1,1.,24.0,0.,24.0,1.,24.0,0.,24.0
1979-03-02 16:05:35.770 ,0,1,0.,24.0,0.,24.0,0.,24.0,0.,24.0
1979-03-02 16:05:59.770 ,1,1,0.,24.0,0.,24.0,1.,24.0,0.,24.0
1979-03-02 16:06:23.770 ,2,1,1.,24.0,0.,24.0,0.,24.0,0.,24.0
1979-03-02 16:06:47.770 ,3,1,1.,24.0,1.,24.0,0.,24.0,0.,24.0
1979-03-02 16:07:11.770 ,4,1,0.,24.0,0.,24.0,0.,24.0,0.,24.0
1979-03-02 16:07:35.770 ,5,1,1.,24.0,0.,24.0,1.,24.0,0.,24.0
1979-03-02 16:07:59.770 ,6,1,0.,24.0,0.,24.0,1.,24.0,0.,24.0
1979-03-02 16:08:23.770 ,7,1,1.,24.0,0.,24.0,0.,24.0,0.,24.0
1979-03-02 16:08:47.770 ,7,1,12.,24.0,1.,24.0,1.,24.0,0.,24.0
1979-03-02 16:09:11.770 ,6,1,10.,24.0,1.,24.0,0.,24.0,0.,24.0
1979-03-02 16:09:35.770 ,5,1,0.,24.0,0.,24.0,1.,24.0,0.,24.0
1979-03-02 16:09:59.770 ,4,1,1.,24.0,0.,24.0,0.,24.0,0.,24.0
1979-03-02 16:10:23.770 ,3,1,0.,24.0,0.,24.0,0.,24.0,0.,24.0
1979-03-02 16:10:47.770 ,0,0,0.,24.0,0.,24.0,0.,24.0,0.,24.0
1979-03-02 16:11:11.770 ,0,0,2.,24.0,0.,24.0,1.,24.0,0.,24.0
1979-03-02 16:11:35.770 ,0,1,0.,24.0,0.,24.0,0.,24.0,0.,24.0
1979-03-02 16:11:59.770 ,0,1,0.,24.0,0.,24.0,0.,24.0,0.,24.0
1979-03-02 16:12:23.770 ,0,0,0.,24.0,0.,24.0,1.,24.0,0.,24.0
1979-03-02 16:12:57.970 ,0,0,1.,24.0,0.,24.0,0.,24.0,0.,24.0
1979-03-02 16:13:11.770 ,3,1,0.,24.0,0.,24.0,1.,24.0,0.,24.0
1979-03-02 16:13:35.770 ,4,1,0.,24.0,0.,24.0,0.,24.0,0.,24.0
1979-03-02 16:13:59.770 ,5,1,0.,24.0,0.,24.0,0.,24.0,0.,24.0
1979-03-02 16:14:23.770 ,6,1,1.,24.0,0.,24.0,0.,24.0,0.,24.0
1979-03-02 16:14:47.770 ,7,1,2.,24.0,0.,24.0,1.,24.0,0.,24.0
1979-03-02 16:15:11.770 ,7,1,12.,24.0,0.,24.0,0.,24.0,0.,24.0
1979-03-02 16:15:35.770 ,6,1,7.,24.0,0.,24.0,1.,24.0,0.,24.0
1979-03-02 16:15:59.770 ,5,1,0.,24.0,0.,24.0,0.,24.0,0.,24.0
1979-03-02 16:16:23.770 ,4,1,0.,24.0,0.,24.0,0.,24.0,0.,24.0
1979-03-02 16:16:47.770 ,3,1,2.,24.0,1.,24.0,0.,24.0,0.,24.0
1979-03-02 16:17:11.770 ,2,1,1.,24.0,0.,24.0,0.,24.0,0.,24.0
1979-03-02 16:17:35.770 ,1,1,0.,24.0,0.,24.0,0.,24.0,0.,24.0
1979-03-02 16:17:59.770 ,0,1,1.,24.0,1.,24.0,0.,24.0,0.,24.0
1979-03-02 16:18:23.770 ,0,1,0.,24.0,0.,24.0,0.,24.0,0.,24.0
1979-03-02 16:18:47.770 ,1,1,1.,24.0,0.,24.0,0.,24.0,0.,24.0
1979-03-02 16:19:11.770 ,2,1,0.,24.0,1.,24.0,1.,24.0,0.,24.0
1979-03-02 16:19:35.770 ,3,1,0.,24.0,1.,24.0,0.,24.0,0.,24.0
1979-03-02 16:19:59.770 ,4,1,0.,24.0,0.,24.0,1.,24.0,0.,24.0
1979-03-02 16:20:23.770 ,5,1,0.,24.0,0.,24.0,0.,24.0,0.,24.0
1979-03-02 16:20:47.770 ,0,0,0.,24.0,1.,24.0,0.,24.0,0.,24.0
1979-03-02 16:21:11.770 ,7,1,,0,,0,,0,,0
1979-03-02 16:21:35.770 ,7,1,14.,24.0,0.,24.0,0.,24.0,0.,24.0
1979-03-02 16:21:59.770 ,0,0,2.,24.0,0.,24.0,1.,24.0,0.,24.0
1979-03-02 16:22:23.770 ,0,0,,0,,0,,0,,0
1979-03-02 16:22:47.770 ,0,0,1.,24.0,0.,24.0,1.,24.0,0.,24.0
1979-03-02 16:23:11.770 ,0,0,0.,24.0,0.,24.0,0.,24.0,0.,24.0
1979-03-02 16:23:35.770 ,0,0,,0,,0,,0,,0
1979-03-02 16:24:48.970 ,0,0,0.,24.0,0.,24.0,0.,24.0,0.,24.0
1979-03-02 16:25:11.770 ,0,0,0.,24.0,0.,24.0,0.,24.0,0.,24.0
1979-03-02 16:25:35.770 ,2,1,0.,24.0,0.,24.0,0.,24.0,0.,24.0
1979-03-02 16:25:59.770 ,3,1,0.,24.0,0.,24.0,1.,24.0,0.,24.0
1979-03-02 16:26:23.770 ,4,1,0.,24.0,0.,24.0,0.,24.0,0.,24.0
1979-03-02 16:26:47.770 ,5,1,0.,24.0,0.,24.0,0.,24.0,0.,24.0
1979-03-02 16:27:11.770 ,6,1,0.,24.0,0.,24.0,1.,24.0,0.,24.0
1979-03-02 16:27:35.770 ,7,1,5.,24.0,0.,24.0,0.,24.0,0.,24.0
1979-03-02 16:27:59.770 ,7,1,7.,24.0,0.,24.0,0.,24.0,0.,24.0
1979-03-02 16:28:23.770 ,6,1,11.,24.0,0.,24.0,0.,24.0,0.,24.0
1979-03-02 16:28:47.770 ,5,1,0.,24.0,0.,24.0,0.,24.0,0.,24.0
1979-03-02 16:29:11.770 ,4,1,0.,24.0,0.,24.0,0.,24.0,0.,24.0
1979-03-02 16:29:35.770 ,3,1,0.,24.0,0.,24.0,0.,24.0,0.,24.0
1979-03-02 16:29:59.770 ,2,1,0.,24.0,0.,24.0,0.,24.0,0.,24.0
1979-03-02 16:30:23.770 ,1,1,0.,24.0,0.,24.0,1.,24.0,0.,24.0
1979-03-02 16:30:47.770 ,0,0,,0,,0,,0,,0
1979-03-02 16:31:12.370 ,0,0,1.,24.0,0.,24.0,0.,24.0,0.,24.0
1979-03-02 16:31:35.770 ,0,0,,0,,0,,0,,0
1979-03-02 16:31:59.770 ,0,0,1.,24.0,0.,24.0,0.,24.0,0.,24.0
1979-03-02 16:32:23.770 ,0,0,1.,24.0,0.,24.0,0.,24.0,0.,24.0
1979-03-02 16:32:47.770 ,4,1,0.,24.0,0.,24.0,0.,24.0,0.,24.0
1979-03-02 16:33:11.770 ,5,1,0.,24.0,0.,24.0,0.,24.0,0.,24.0
1979-03-02 16:33:37.570 ,0,0,0.,24.0,0.,24.0,0.,24.0,0.,24.0
1979-03-02 16:33:59.770 ,0,0,0.,24.0,0.,24.0,2.,24.0,0.,24.0
1979-03-02 16:34:23.770 ,7,1,5.,24.0,0.,24.0,0.,24.0,0.,24.0
1979-03-02 16:34:47.770 ,0,0,7.,24.0,0.,24.0,0.,24.0,0.,24.0
1979-03-02 16:35:11.770 ,0,0,,0,,0,,0,,0
1979-03-02 16:35:35.770 ,0,0,0.,24.0,0.,24.0,0.,24.0,0.,24.0
1979-03-02 16:35:59.770 ,0,0,1.,24.0,0.,24.0,0.,24.0,0.,24.0
1979-03-02 16:36:23.770 ,2,1,0.,24.0,0.,24.0,0.,24.0,0.,24.0
1979-03-02 16:36:47.770 ,1,1,1.,24.0,0.,24.0,1.,24.0,0.,24.0
1979-03-02 16:37:11.770 ,0,1,0.,24.0,1.,24.0,1.,24.0,0.,24.0
1979-03-02 16:37:35.770 ,0,0,,0,,0,,0,,0
1979-03-02 16:37:59.770 ,0,0,,0,,0,,0,,0
1979-03-02 16:38:24.370 ,0,0,2.,24.0,0.,24.0,1.,24.0,0.,24.0
1979-03-02 16:38:47.770 ,0,0,0.,24.0,0.,24.0,0.,24.0,0.,24.0
1979-03-02 16:39:11.770 ,0,0,0.,24.0,0.,24.0,0.,24.0,0.,24.0
1979-03-02 16:39:35.770 ,5,1,0.,24.0,0.,24.0,0.,24.0,0.,24.0
1979-03-02 16:39:59.770 ,6,1,0.,24.0,0.,24.0,0.,24.0,0.,24.0
1979-03-02 16:40:23.770 ,7,1,4.,24.0,0.,24.0,0.,24.0,0.,24.0
1979-03-02 16:40:47.770 ,7,1,12.,24.0,0.,24.0,0.,24.0,0.,24.0
1979-03-02 16:41:11.770 ,6,1,5.,24.0,0.,24.0,1.,24.0,0.,24.0
1979-03-02 16:41:35.770 ,5,1,,0,,0,,0,,0
1979-03-02 16:41:59.770 ,4,1,0.,24.0,0.,24.0,0.,24.0,0.,24.0
1979-03-02 16:42:23.770 ,3,1,0.,24.0,0.,24.0,0.,24.0,0.,24.0
1979-03-02 16:42:47.770 ,2,1,0.,24.0,0.,24.0,0.,24.0,0.,24.0
1979-03-02 16:43:11.780 ,2,0,,0,,0,,0,,0
1979-03-02 16:43:35.780 ,0,1,1.,24.0,0.,24.0,0.,24.0,0.,24.0
1979-03-02 16:43:59.780 ,0,1,0.,24.0,0.,24.0,0.,24.0,0.,24.0
1979-03-02 16:44:23.780 ,1,1,1.,24.0,0.,24.0,1.,24.0,0.,24.0
1979-03-02 16:44:47.780 ,2,1,0.,24.0,0.,24.0,0.,24.0,0.,24.0
1979-03-02 16:45:11.780 ,3,1,2.,24.0,0.,24.0,1.,24.0,0.,24.0
1979-03-02 16:45:35.780 ,4,1,0.,24.0,0.,24.0,0.,24.0,0.,24.0
1979-03-02 16:45:59.780 ,5,1,1.,24.0,0.,24.0,0.,24.0,0.,24.0
1979-03-02 16:46:23.780 ,6,1,0.,24.0,1.,24.0,0.,24.0,0.,24.0
1979-03-02 16:46:47.780 ,7,1,1.,24.0,0.,24.0,0.,24.0,0.,24.0
1979-03-02 16:47:11.780 ,7,1,16.,24.0,0.,24.0,0.,24.0,0.,24.0
1979-03-02 16:47:35.780 ,6,1,8.,24.0,0.,24.0,2.,24.0,0.,24.0
1979-03-02 16:47:59.780 ,5,1,1.,24.0,0.,24.0,1.,24.0,0.,24.0
1979-03-02 16:48:23.780 ,4,1,0.,24.0,0.,24.0,0.,24.0,0.,24.0
1979-03-02 16:48:47.780 ,3,1,0.,24.0,0.,24.0,0.,24.0,0.,24.0
1979-03-02 16:49:11.780 ,2,1,0.,24.0,0.,24.0,0.,24.0,0.,24.0
1979-03-02 16:49:35.780 ,1,1,0.,24.0,0.,24.0,0.,24.0,0.,24.0
1979-03-02 16:49:59.780 ,0,0,0.,24.0,0.,24.0,2.,24.0,0.,24.0
1979-03-02 16:50:23.780 ,0,1,1.,24.0,0.,24.0,0.,24.0,0.,24.0
1979-03-02 16:50:47.780 ,1,1,0.,24.0,0.,24.0,0.,24.0,0.,24.0
1979-03-02 16:51:11.780 ,2,1,,0,,0,,0,,0
1979-03-02 16:51:35.780 ,3,1,0.,24.0,0.,24.0,1.,24.0,0.,24.0
1979-03-02 16:51:59.780 ,0,0,0.,24.0,0.,24.0,0.,24.0,0.,24.0
1979-03-02 16:52:23.780 ,0,0,0.,24.0,0.,24.0,0.,24.0,0.,24.0
1979-03-02 16:52:47.780 ,0,0,0.,24.0,0.,24.0,1.,24.0,0.,24.0
1979-03-02 16:53:11.780 ,7,1,2.,24.0,0.,24.0,0.,24.0,0.,24.0
1979-03-02 16:53:35.780 ,0,0,16.,24.0,0.,24.0,0.,24.0,0.,24.0
1979-03-02 16:53:59.780 ,6,1,4.,24.0,0.,24.0,0.,24.0,0.,24.0
1979-03-02 16:54:23.780 ,5,1,1.,24.0,0.,24.0,0.,24.0,0.,24.0
1979-03-02 16:54:47.780 ,4,1,0.,24.0,0.,24.0,0.,24.0,0.,24.0
1979-03-02 16:55:11.780 ,3,1,0.,24.0,0.,24.0,0.,24.0,0.,24.0
1979-03-02 16:55:35.780 ,2,1,0.,24.0,0.,24.0,0.,24.0,0.,24.0
1979-03-02 16:55:59.780 ,1,1,0.,24.0,0.,24.0,0.,24.0,0.,24.0
1979-03-02 16:56:23.780 ,0,1,0.,24.0,0.,24.0,0.,24.0,0.,24.0
1979-03-02 16:56:47.780 ,0,1,0.,24.0,0.,24.0,0.,24.0,0.,24.0
1979-03-02 16:57:11.780 ,1,1,0.,24.0,0.,24.0,0.,24.0,0.,24.0
1979-03-02 16:57:35.780 ,2,1,0.,24.0,0.,24.0,1.,24.0,0.,24.0
1979-03-02 16:57:59.780 ,3,1,0.,24.0,0.,24.0,1.,24.0,0.,24.0
1979-03-02 16:58:23.780 ,4,1,0.,24.0,0.,24.0,0.,24.0,0.,24.0
1979-03-02 16:58:47.780 ,5,1,0.,24.0,0.,24.0,0.,24.0,0.,24.0
1979-03-02 16:59:11.780 ,6,1,0.,24.0,0.,24.0,0.,24.0,0.,24.0
1979-03-02 16:59:35.780 ,7,1,3.,24.0,0.,24.0,0.,24.0,0.,24.0
1979-03-02 16:59:59.780 ,7,1,17.,24.0,0.,24.0,1.,24.0,0.,24.0
1979-03-02 17:00:23.780 ,6,1,7.,24.0,0.,24.0,1.,24.0,0.,24.0
1979-03-02 17:00:47.780 ,5,1,0.,24.0,0.,24.0,0.,24.0,0.,24.0
1979-03-02 17:01:11.780 ,0,0,,0,,0,,0,,0
1979-03-02 17:01:38.180 ,0,0,0.,24.0,1.,24.0,0.,24.0,0.,24.0
1979-03-02 17:01:59.780 ,0,0,,0,,0,,0,,0
1979-03-02 17:02:24.380 ,0,0,,0,,0,,0,,0
1979-03-02 17:02:47.780 ,0,0,,0,,0,,0,,0
1979-03-02 17:03:11.780 ,0,0,0.,24.0,0.,24.0,0.,24.0,0.,24.0
1979-03-02 17:03:35.780 ,0,0,0.,24.0,0.,24.0,0.,24.0,0.,24.0
1979-03-02 17:03:59.780 ,0,0,0.,24.0,0.,24.0,0.,24.0,0.,24.0
1979-03-02 17:04:23.780 ,0,0,0.,24.0,0.,24.0,0.,24.0,0.,24.0
1979-03-02 17:04:47.780 ,4,1,1.,24.0,0.,24.0,0.,24.0,0.,24.0
1979-03-02 17:05:11.770 ,0,0,0.,24.0,0.,24.0,0.,24.0,0.,24.0
1979-03-02 17:05:35.780 ,6,1,0.,24.0,0.,24.0,0.,24.0,0.,24.0
1979-03-02 17:05:59.780 ,7,1,4.,24.0,0.,24.0,0.,24.0,0.,24.0
1979-03-02 17:06:23.780 ,7,1,12.,24.0,0.,24.0,0.,24.0,0.,24.0
1979-03-02 17:06:47.780 ,6,1,5.,24.0,0.,24.0,1.,24.0,0.,24.0
1979-03-02 17:07:11.770 ,5,1,0.,24.0,0.,24.0,0.,24.0,0.,24.0
1979-03-02 17:07:35.780 ,4,1,0.,24.0,0.,24.0,0.,24.0,0.,24.0
1979-03-02 17:07:59.780 ,3,1,0.,24.0,1.,24.0,1.,24.0,0.,24.0
1979-03-02 17:08:23.780 ,2,1,1.,24.0,0.,24.0,0.,24.0,0.,24.0
1979-03-02 17:08:47.770 ,1,1,0.,24.0,0.,24.0,0.,24.0,0.,24.0
1979-03-02 17:09:11.770 ,0,1,0.,24.0,0.,24.0,0.,24.0,0.,24.0
1979-03-02 17:09:35.770 ,0,1,1.,24.0,0.,24.0,0.,24.0,0.,24.0
1979-03-02 17:09:59.770 ,1,1,0.,24.0,0.,24.0,1.,24.0,0.,24.0
1979-03-02 17:10:23.770 ,2,1,1.,24.0,0.,24.0,0.,24.0,0.,24.0
1979-03-02 17:10:47.770 ,3,1,0.,24.0,0.,24.0,1.,24.0,0.,24.0
1979-03-02 17:11:11.770 ,4,1,0.,24.0,0.,24.0,0.,24.0,0.,24.0
1979-03-02 17:11:35.770 ,5,1,0.,24.0,0.,24.0,0.,24.0,0.,24.0
1979-03-02 17:11:59.770 ,6,1,0.,24.0,0.,24.0,0.,24.0,0.,24.0
1979-03-02 17:12:23.770 ,7,1,1.,24.0,0.,24.0,0.,24.0,0.,24.0
1979-03-02 17:13:35.770 ,0,0,,0,,0,,0,,0
1979-03-02 17:13:59.770 ,4,1,0.,24.0,0.,24.0,0.,24.0,0.,24.0
1979-03-02 17:14:23.770 ,3,1,0.,24.0,2.,24.0,1.,24.0,0.,24.0
1979-03-02 17:14:47.770 ,2,1,0.,24.0,0.,24.0,0.,24.0,0.,24.0
1979-03-02 17:15:11.770 ,1,1,0.,24.0,0.,24.0,1.,24.0,0.,24.0
1979-03-02 17:15:35.770 ,0,1,0.,24.0,0.,24.0,1.,24.0,0.,24.0
1979-03-02 17:15:59.770 ,0,1,0.,24.0,0.,24.0,1.,24.0,0.,24.0
1979-03-02 17:16:23.770 ,1,1,2.,24.0,0.,24.0,0.,24.0,0.,24.0
1979-03-02 17:16:47.770 ,0,0,1.,24.0,0.,24.0,3.,24.0,0.,24.0
1979-03-02 17:17:11.780 ,0,0,0.,24.0,0.,24.0,2.,24.0,0.,24.0
1979-03-02 17:17:35.780 ,0,0,,0,,0,,0,,0
1979-03-02 17:17:59.780 ,0,0,0.,24.0,0.,24.0,0.,24.0,0.,24.0
1979-03-02 17:18:24.380 ,0,0,0.,24.0,0.,24.0,0.,24.0,0.,24.0
1979-03-02 17:18:47.780 ,7,1,2.,24.0,0.,24.0,0.,24.0,0.,24.0
1979-03-02 17:19:11.780 ,7,1,13.,24.0,0.,24.0,0.,24.0,0.,24.0
1979-03-02 17:19:35.780 ,6,1,7.,24.0,0.,24.0,0.,24.0,0.,24.0
1979-03-02 17:19:59.780 ,5,1,0.,24.0,0.,24.0,0.,24.0,0.,24.0
1979-03-02 17:20:23.780 ,4,1,1.,24.0,0.,24.0,0.,24.0,0.,24.0
1979-03-02 17:20:47.780 ,3,1,0.,24.0,0.,24.0,0.,24.0,0.,24.0
1979-03-02 17:21:11.780 ,2,1,0.,24.0,0.,24.0,0.,24.0,0.,24.0
1979-03-02 17:21:35.780 ,1,1,0.,24.0,0.,24.0,1.,24.0,0.,24.0
1979-03-02 17:21:59.780 ,0,1,1.,24.0,0.,24.0,1.,24.0,0.,24.0
1979-03-02 17:22:23.780 ,0,1,0.,24.0,0.,24.0,0.,24.0,0.,24.0
1979-03-02 17:22:47.780 ,1,1,0.,24.0,0.,24.0,0.,24.0,0.,24.0
1979-03-02 17:23:11.780 ,2,1,1.,24.0,0.,24.0,0.,24.0,0.,24.0
1979-03-02 17:23:35.780 ,3,1,0.,24.0,0.,24.0,0.,24.0,0.,24.0
1979-03-02 17:23:59.780 ,4,1,0.,24.0,0.,24.0,1.,24.0,0.,24.0
1979-03-02 17:24:23.780 ,5,1,0.,24.0,0.,24.0,0.,24.0,0.,24.0
1979-03-02 17:24:47.780 ,6,1,0.,24.0,0.,24.0,1.,24.0,0.,24.0
1979-03-02 17:25:11.780 ,7,1,0.,24.0,0.,24.0,1.,24.0,0.,24.0
1979-03-02 17:25:35.780 ,7,1,,0,,0,,0,,0
1979-03-02 17:25:59.780 ,6,1,2.,24.0,0.,24.0,0.,24.0,0.,24.0
1979-03-02 17:26:23.780 ,5,1,0.,24.0,0.,24.0,0.,24.0,0.,24.0
1979-03-02 17:26:47.780 ,4,1,1.,24.0,0.,24.0,0.,24.0,0.,24.0
1979-03-02 17:27:11.780 ,3,1,0.,24.0,0.,24.0,1.,24.0,0.,24.0
1979-03-02 17:27:35.780 ,2,1,1.,24.0,0.,24.0,0.,24.0,0.,24.0
1979-03-02 17:27:59.780 ,1,1,0.,24.0,0.,24.0,1.,24.0,0.,24.0
1979-03-02 17:28:23.780 ,0,1,0.,24.0,0.,24.0,0.,24.0,0.,24.0
1979-03-02 17:28:47.780 ,0,1,0.,24.0,0.,24.0,0.,24.0,0.,24.0
1979-03-02 17:29:11.780 ,1,1,0.,24.0,0.,24.0,0.,24.0,0.,24.0
1979-03-02 17:29:35.780 ,2,1,0.,24.0,0.,24.0,0.,24.0,0.,24.0
1979-03-02 17:29:59.780 ,3,1,1.,24.0,0.,24.0,0.,24.0,0.,24.0
1979-03-02 17:30:23.780 ,4,1,0.,24.0,0.,24.0,0.,24.0,0.,24.0
1979-03-02 17:30:47.780 ,5,1,0.,24.0,0.,24.0,0.,24.0,0.,24.0
1979-03-02 17:31:11.780 ,6,1,0.,24.0,0.,24.0,0.,24.0,0.,24.0
1979-03-02 17:31:35.780 ,7,1,3.,24.0,0.,24.0,1.,24.0,0.,24.0
1979-03-02 17:31:59.780 ,7,1,14.,24.0,0.,24.0,0.,24.0,0.,24.0
1979-03-02 17:32:23.780 ,6,1,10.,24.0,0.,24.0,0.,24.0,0.,24.0
1979-03-02 17:32:47.780 ,5,1,0.,24.0,1.,24.0,2.,24.0,0.,24.0
1979-03-02 17:33:11.780 ,4,1,0.,24.0,0.,24.0,0.,24.0,0.,24.0
1979-03-02 17:33:35.780 ,3,1,1.,24.0,0.,24.0,2.,24.0,0.,24.0
1979-03-02 17:33:59.780 ,2,1,1.,24.0,0.,24.0,0.,24.0,0.,24.0
1979-03-02 17:34:23.780 ,0,0,1.,24.0,0.,24.0,0.,24.0,0.,24.0
1979-03-02 17:34:47.780 ,0,0,1.,24.0,0.,24.0,0.,24.0,0.,24.0
1979-03-02 17:35:11.780 ,0,1,0.,24.0,0.,24.0,1.,24.0,0.,24.0
1979-03-02 17:35:35.780 ,1,1,0.,24.0,1.,24.0,0.,24.0,0.,24.0
1979-03-02 17:35:59.780 ,2,1,0.,24.0,0.,24.0,0.,24.0,0.,24.0
1979-03-02 17:36:23.780 ,3,1,0.,24.0,0.,24.0,0.,24.0,0.,24.0
1979-03-02 17:36:47.780 ,4,1,0.,24.0,0.,24.0,3.,24.0,0.,24.0
1979-03-02 17:37:11.780 ,5,1,0.,24.0,1.,24.0,0.,24.0,0.,24.0
1979-03-02 17:37:35.780 ,6,1,0.,24.0,0.,24.0,0.,24.0,0.,24.0
1979-03-02 17:37:59.780 ,7,1,2.,24.0,0.,24.0,1.,24.0,0.,24.0
1979-03-02 17:38:23.780 ,7,1,6.,24.0,0.,24.0,0.,24.0,0.,24.0
1979-03-02 17:38:47.780 ,6,1,5.,24.0,0.,24.0,1.,24.0,0.,24.0